Location: Unspecified
(22.6800°N, 112.2000°E)
Time: 12:41:32
(UTC+08:00)

Tiros 1 despin weight - All Passes

Search period start: 31 July 2021 00:00
Search period end: 10 August 2021 00:00
Orbit: 593 x 642 km, 48.2° (Epoch: 30 July)

Date Brightness Start Highest point End Pass type
(mag) Time Alt. Az. Time Alt. Az. Time Alt. Az.
31 Jul - 12:07:46 10° SSW 12:12:14 52° SE 12:16:46 10° NE daylight
31 Jul - 13:50:35 10° W 13:53:58 19° NW 13:57:21 10° N daylight
31 Jul - 20:43:45 10° NNW 20:47:58 34° NE 20:52:07 10° ESE visible
31 Jul - 22:25:38 10° WNW 22:29:20 24° SW 22:32:58 10° S visible
01 Aug - 10:45:25 10° SSE 10:47:19 12° SE 10:49:14 10° ESE daylight
01 Aug - 12:23:53 10° SW 12:28:27 65° NW 12:33:06 10° NE daylight
01 Aug - 14:10:14 10° NW 14:10:39 10° NNW 14:11:04 10° NNW daylight
01 Aug - 19:20:34 10° N 19:22:13 12° NNE 19:23:52 10° NE daylight
01 Aug - 20:59:40 10° NW 21:04:17 80° NE 21:08:50 10° SE visible
02 Aug - 10:59:20 10° S 11:03:21 30° SE 11:07:24 10° ENE daylight
02 Aug - 12:40:48 10° W 12:44:49 29° NW 12:48:54 10° NNE daylight
02 Aug - 19:35:12 10° NNW 19:38:51 22° NE 19:42:28 10° E visible
02 Aug - 21:16:08 10° WNW 21:20:28 41° SW 21:24:44 10° SSE visible
03 Aug - 11:14:55 10° SW 11:19:29 75° SE 11:24:08 10° NE daylight
03 Aug - 12:58:44 10° WNW 13:01:23 15° NW 13:04:04 10° N daylight
03 Aug - 19:50:49 10° NNW 19:55:18 47° NE 19:59:43 10° ESE visible
03 Aug - 21:33:32 10° W 21:36:32 17° SW 21:39:30 10° SSW visible
04 Aug - 09:51:26 10° S 09:54:30 18° SE 09:57:36 10° E daylight
04 Aug - 11:31:21 10° WSW 11:35:45 46° NW 11:40:14 10° NNE daylight
04 Aug - 18:26:55 10° N 18:29:41 15° NE 18:32:24 10° ENE daylight
04 Aug - 20:06:55 10° NW 20:11:33 72° SW 20:16:06 10° SE visible
05 Aug - 10:06:15 10° SSW 10:10:33 43° SE 10:14:57 10° ENE daylight
05 Aug - 11:48:37 10° W 11:52:12 22° NW 11:55:49 10° NNE daylight
05 Aug - 18:42:07 10° NNW 18:46:14 30° NE 18:50:17 10° ESE daylight
05 Aug - 20:23:41 10° WNW 20:27:40 29° SW 20:31:37 10° S visible
06 Aug - 10:22:12 10° SW 10:26:44 77° NW 10:31:23 10° NE daylight
06 Aug - 12:07:20 10° NW 12:08:50 11° NNW 12:10:22 10° NNW daylight
06 Aug - 17:19:36 10° NNE 17:20:25 10° NNE 17:21:13 10° NE daylight
06 Aug - 18:57:57 10° NW 19:02:36 67° NE 19:07:10 10° SE daylight
06 Aug - 20:42:01 10° WSW 20:43:42 12° SW 20:45:24 10° SSW visible
07 Aug - 08:57:58 10° S 09:01:42 25° SE 09:05:27 10° ENE daylight
07 Aug - 10:38:57 10° WSW 10:43:05 33° NW 10:47:16 10° NNE daylight
07 Aug - 17:33:39 10° N 17:37:05 20° NE 17:40:30 10° E daylight
07 Aug - 19:14:17 10° NW 19:18:47 50° SW 19:23:13 10° SSE daylight
08 Aug - 09:13:20 10° SSW 09:17:48 63° SE 09:22:21 10° NE daylight
08 Aug - 10:56:38 10° WNW 10:59:36 17° NW 11:02:35 10° N daylight
08 Aug - 17:49:09 10° NNW 17:53:33 41° NE 17:57:55 10° ESE daylight
08 Aug - 19:31:25 10° W 19:34:52 21° SW 19:38:17 10° S visible
09 Aug - 07:50:21 10° SSE 07:52:51 15° SE 07:55:23 10° E daylight
09 Aug - 09:29:36 10° WSW 09:34:02 54° NW 09:38:32 10° NE daylight
09 Aug - 16:25:31 10° N 16:27:52 14° NNE 16:30:14 10° ENE daylight
09 Aug - 18:05:10 10° NW 18:09:51 86° SW 18:14:28 10° SE daylight
